| time (UTC) | temp F | wind direction | speed MPH | gust MPH | rain 1hr in | rain 24hr in | rain mn in | humidity % | barometer mb |
| 20260902152609 | 66 | 55 | 0.0 | 2.0 | 0.00 | 0.02 | 0.00 | 64 | 1028.6 |
| 20260902152103 | 66 | 45 | 0.0 | 2.0 | 0.00 | 0.02 | 0.00 | 65 | 1028.5 |
| 20260902151617 | 65 | 45 | 0.0 | 4.0 | 0.00 | 0.02 | 0.00 | 66 | 1028.4 |
| 20260902151109 | 65 | 45 | 3.0 | 4.0 | 0.00 | 0.02 | 0.00 | 64 | 1028.5 |
| 20260902150606 | 65 | 140 | 0.0 | 0.0 | 0.00 | 0.02 | 0.00 | 68 | 1028.4 |
| 20260902145635 | 64 | 140 | 0.0 | 0.0 | 0.00 | 0.02 | 0.00 | 65 | 1028.4 |
| 20260902145107 | 64 | 143 | 0.0 | 0.0 | 0.00 | 0.02 | 0.00 | 69 | 1028.4 |
| 20260902144601 | 64 | 143 | 0.0 | 0.0 | 0.00 | 0.02 | 0.00 | 67 | 1028.3 |
| 20260902144116 | 63 | 143 | 0.0 | 0.0 | 0.00 | 0.02 | 0.00 | 72 | 1028.3 |
| 20260902143609 | 61 | 143 | 0.0 | 0.0 | 0.00 | 0.02 | 0.00 | 74 | 1028.4 |
| 20260902143104 | 60 | 52 | 0.0 | 0.0 | 0.00 | 0.02 | 0.00 | 79 | 1028.3 |
| 20260902142616 | 59 | 52 | 0.0 | 0.0 | 0.00 | 0.02 | 0.00 | 81 | 1028.3 |
| 20260902142114 | 58 | 52 | 0.0 | 0.0 | 0.00 | 0.02 | 0.00 | 81 | 1028.3 |
| 20260902141608 | 56 | 52 | 0.0 | 0.0 | 0.00 | 0.02 | 0.00 | 83 | 1028.2 |
| 20260902141102 | 55 | 232 | 0.0 | 0.0 | 0.00 | 0.02 | 0.00 | 84 | 1028.1 |
| 20260902140616 | 55 | 55 | 0.0 | 0.0 | 0.00 | 0.02 | 0.00 | 87 | 1028.0 |
| 20260902140110 | 54 | 55 | 0.0 | 0.0 | 0.00 | 0.02 | 0.00 | 88 | 1028.1 |
| 20260902135603 | 53 | 55 | 0.0 | 0.0 | 0.00 | 0.02 | 0.00 | 88 | 1027.9 |
| 20260902135117 | 53 | 55 | 0.0 | 0.0 | 0.00 | 0.02 | 0.00 | 88 | 1027.8 |
| 20260902134611 | 52 | 55 | 0.0 | 0.0 | 0.00 | 0.02 | 0.00 | 88 | 1027.9 |
| 20260902134110 | 52 | 55 | 0.0 | 0.0 | 0.00 | 0.02 | 0.00 | 88 | 1027.8 |
| 20260902133603 | 52 | 55 | 0.0 | 0.0 | 0.00 | 0.02 | 0.00 | 88 | 1027.7 |
| 20260902133117 | 51 | 55 | 0.0 | 0.0 | 0.00 | 0.02 | 0.00 | 88 | 1027.6 |
| 20260902132611 | 51 | 55 | 0.0 | 0.0 | 0.00 | 0.02 | 0.00 | 87 | 1027.6 |
| 20260902132104 | 51 | 55 | 0.0 | 0.0 | 0.00 | 0.02 | 0.00 | 87 | 1027.6 |
| 20260902131618 | 51 | 55 | 0.0 | 0.0 | 0.00 | 0.02 | 0.00 | 87 | 1027.5 |
| 20260902131112 | 51 | 55 | 0.0 | 0.0 | 0.00 | 0.02 | 0.00 | 87 | 1027.5 |
| 20260902130610 | 51 | 55 | 0.0 | 0.0 | 0.00 | 0.02 | 0.00 | 87 | 1027.5 |
| 20260902125616 | 51 | 55 | 0.0 | 0.0 | 0.00 | 0.02 | 0.00 | 87 | 1027.6 |
| 20260902125110 | 51 | 55 | 0.0 | 0.0 | 0.00 | 0.02 | 0.00 | 86 | 1027.6 |
| 20260902124603 | 51 | 55 | 0.0 | 0.0 | 0.00 | 0.02 | 0.00 | 87 | 1027.6 |
| 20260902124117 | 51 | 55 | 0.0 | 0.0 | 0.00 | 0.02 | 0.00 | 87 | 1027.4 |
| 20260902123631 | 50 | 55 | 0.0 | 0.0 | 0.00 | 0.02 | 0.00 | 86 | 1027.4 |
| 20260902123103 | 51 | 55 | 0.0 | 0.0 | 0.00 | 0.03 | 0.00 | 86 | 1027.4 |
| 20260902122617 | 51 | 55 | 0.0 | 0.0 | 0.00 | 0.03 | 0.00 | 86 | 1027.4 |
| 20260902122130 | 51 | 55 | 0.0 | 0.0 | 0.00 | 0.03 | 0.00 | 86 | 1027.2 |
| 20260902121607 | 51 | 55 | 0.0 | 0.0 | 0.00 | 0.03 | 0.00 | 85 | 1027.1 |
| 20260902121121 | 51 | 55 | 0.0 | 0.0 | 0.00 | 0.03 | 0.00 | 85 | 1027.2 |
| 20260902120634 | 51 | 55 | 0.0 | 0.0 | 0.00 | 0.03 | 0.00 | 85 | 1027.2 |
| 20260902120107 | 51 | 55 | 0.0 | 0.0 | 0.00 | 0.03 | 0.00 | 85 | 1027.2 |
| 20260902115641 | 51 | 55 | 0.0 | 0.0 | 0.00 | 0.03 | 0.00 | 85 | 1027.1 |
| 20260902115115 | 52 | 55 | 0.0 | 0.0 | 0.00 | 0.03 | 0.00 | 86 | 1027.2 |
| 20260902114609 | 51 | 55 | 0.0 | 0.0 | 0.00 | 0.03 | 0.00 | 85 | 1027.2 |
| 20260902114103 | 52 | 55 | 0.0 | 0.0 | 0.00 | 0.03 | 0.00 | 85 | 1027.1 |
| 20260902113618 | 51 | 55 | 0.0 | 0.0 | 0.00 | 0.03 | 0.00 | 85 | 1027.1 |
| 20260902113135 | 52 | 55 | 0.0 | 0.0 | 0.00 | 0.04 | 0.00 | 85 | 1027.1 |
| 20260902112608 | 52 | 55 | 0.0 | 0.0 | 0.00 | 0.04 | 0.00 | 85 | 1027.2 |
| 20260902112102 | 52 | 55 | 0.0 | 0.0 | 0.00 | 0.04 | 0.00 | 85 | 1027.2 |
| 20260902111616 | 51 | 55 | 0.0 | 0.0 | 0.00 | 0.04 | 0.00 | 85 | 1027.2 |
| 20260902111110 | 51 | 55 | 0.0 | 0.0 | 0.00 | 0.04 | 0.00 | 85 | 1027.3 |
| 20260902110604 | 51 | 55 | 0.0 | 0.0 | 0.00 | 0.04 | 0.00 | 85 | 1027.3 |
| 20260902110118 | 51 | 55 | 0.0 | 0.0 | 0.00 | 0.04 | 0.00 | 85 | 1027.4 |
| 20260902105611 | 51 | 55 | 0.0 | 0.0 | 0.00 | 0.04 | 0.00 | 84 | 1027.4 |
| 20260902105109 | 52 | 55 | 0.0 | 0.0 | 0.00 | 0.04 | 0.00 | 84 | 1027.3 |
| 20260902104603 | 52 | 55 | 0.0 | 0.0 | 0.00 | 0.04 | 0.00 | 85 | 1027.4 |
| 20260902104116 | 52 | 55 | 0.0 | 0.0 | 0.00 | 0.04 | 0.00 | 85 | 1027.3 |
| 20260902103610 | 52 | 55 | 0.0 | 0.0 | 0.00 | 0.04 | 0.00 | 84 | 1027.2 |
| 20260902103124 | 52 | 55 | 0.0 | 0.0 | 0.00 | 0.04 | 0.00 | 84 | 1027.2 |
| 20260902102619 | 52 | 55 | 0.0 | 0.0 | 0.00 | 0.04 | 0.00 | 84 | 1027.2 |
| 20260902102133 | 52 | 55 | 0.0 | 0.0 | 0.00 | 0.04 | 0.00 | 84 | 1027.2 |
| 20260902101605 | 52 | 55 | 0.0 | 0.0 | 0.00 | 0.04 | 0.00 | 84 | 1027.2 |
| 20260902101140 | 52 | 55 | 0.0 | 0.0 | 0.00 | 0.04 | 0.00 | 85 | 1027.1 |
| 20260902100633 | 52 | 55 | 0.0 | 0.0 | 0.00 | 0.04 | 0.00 | 84 | 1027.2 |
| 20260902100110 | 52 | 55 | 0.0 | 0.0 | 0.00 | 0.04 | 0.00 | 83 | 1027.3 |
| 20260902095604 | 52 | 55 | 0.0 | 0.0 | 0.00 | 0.04 | 0.00 | 83 | 1027.2 |
| 20260902095118 | 53 | 55 | 0.0 | 0.0 | 0.00 | 0.04 | 0.00 | 83 | 1027.3 |
| 20260902094631 | 53 | 55 | 0.0 | 0.0 | 0.00 | 0.04 | 0.00 | 83 | 1027.3 |
| 20260902094105 | 53 | 55 | 0.0 | 0.0 | 0.00 | 0.04 | 0.00 | 83 | 1027.3 |
| 20260902093619 | 53 | 55 | 0.0 | 0.0 | 0.00 | 0.04 | 0.00 | 82 | 1027.4 |
| 20260902093114 | 53 | 55 | 0.0 | 0.0 | 0.00 | 0.04 | 0.00 | 82 | 1027.4 |
| 20260902092607 | 53 | 55 | 0.0 | 0.0 | 0.00 | 0.04 | 0.00 | 81 | 1027.4 |
| 20260902092121 | 53 | 55 | 0.0 | 0.0 | 0.00 | 0.04 | 0.00 | 82 | 1027.4 |
| 20260902091618 | 54 | 55 | 0.0 | 0.0 | 0.00 | 0.04 | 0.00 | 82 | 1027.5 |
| 20260902091113 | 54 | 55 | 0.0 | 0.0 | 0.00 | 0.04 | 0.00 | 82 | 1027.4 |
| 20260902090605 | 54 | 55 | 0.0 | 0.0 | 0.00 | 0.04 | 0.00 | 80 | 1027.4 |
| 20260902090140 | 54 | 55 | 0.0 | 0.0 | 0.00 | 0.04 | 0.00 | 81 | 1027.4 |
| 20260902085614 | 54 | 55 | 0.0 | 0.0 | 0.00 | 0.04 | 0.00 | 81 | 1027.4 |
| 20260902085108 | 55 | 55 | 0.0 | 0.0 | 0.00 | 0.04 | 0.00 | 80 | 1027.5 |
| 20260902084602 | 55 | 55 | 0.0 | 0.0 | 0.00 | 0.04 | 0.00 | 81 | 1027.4 |
| 20260902084116 | 55 | 55 | 0.0 | 0.0 | 0.00 | 0.04 | 0.00 | 80 | 1027.4 |
| 20260902083610 | 55 | 55 | 0.0 | 0.0 | 0.00 | 0.04 | 0.00 | 79 | 1027.4 |
| 20260902083108 | 55 | 55 | 0.0 | 0.0 | 0.00 | 0.04 | 0.00 | 79 | 1027.3 |
| 20260902082620 | 56 | 55 | 0.0 | 0.0 | 0.00 | 0.04 | 0.00 | 79 | 1027.3 |
| 20260902082111 | 56 | 55 | 0.0 | 0.0 | 0.00 | 0.04 | 0.00 | 78 | 1027.3 |
| 20260902081605 | 56 | 55 | 0.0 | 0.0 | 0.00 | 0.04 | 0.00 | 78 | 1027.3 |
| 20260902081120 | 56 | 55 | 0.0 | 0.0 | 0.00 | 0.04 | 0.00 | 80 | 1027.2 |
| 20260902080614 | 56 | 55 | 0.0 | 0.0 | 0.00 | 0.04 | 0.00 | 79 | 1027.3 |
| 20260902080108 | 56 | 55 | 0.0 | 0.0 | 0.00 | 0.04 | 0.00 | 79 | 1027.3 |
| 20260902075602 | 56 | 55 | 0.0 | 0.0 | 0.00 | 0.04 | 0.00 | 79 | 1027.4 |
| 20260902075119 | 56 | 55 | 0.0 | 0.0 | 0.00 | 0.04 | 0.00 | 78 | 1027.4 |
| 20260902074633 | 56 | 55 | 0.0 | 0.0 | 0.00 | 0.04 | 0.00 | 79 | 1027.4 |
| 20260902074107 | 56 | 55 | 0.0 | 0.0 | 0.00 | 0.04 | 0.00 | 81 | 1027.5 |
| 20260902073620 | 56 | 55 | 0.0 | 0.0 | 0.00 | 0.04 | 0.00 | 81 | 1027.5 |
| 20260902073114 | 56 | 55 | 0.0 | 0.0 | 0.00 | 0.04 | 0.00 | 80 | 1027.5 |
| 20260902072609 | 56 | 55 | 0.0 | 0.0 | 0.00 | 0.04 | 0.00 | 80 | 1027.4 |
| 20260902072123 | 56 | 55 | 0.0 | 0.0 | 0.00 | 0.04 | 0.00 | 80 | 1027.3 |
| 20260902071616 | 56 | 55 | 0.0 | 0.0 | 0.00 | 0.04 | 0.00 | 81 | 1027.4 |
| 20260902071109 | 57 | 55 | 0.0 | 0.0 | 0.00 | 0.04 | 0.00 | 81 | 1027.4 |
| 20260902070608 | 57 | 55 | 0.0 | 0.0 | 0.00 | 0.04 | 0.00 | 81 | 1027.4 |
| 20260902065636 | 57 | 55 | 0.0 | 0.0 | 0.00 | 0.04 | 0.00 | 80 | 1027.3 |
| 20260902065108 | 57 | 55 | 0.0 | 0.0 | 0.00 | 0.04 | 0.00 | 80 | 1027.3 |
| 20260902064624 | 57 | 55 | 0.0 | 0.0 | 0.00 | 0.04 | 0.00 | 80 | 1027.2 |
| 20260902064117 | 57 | 55 | 0.0 | 0.0 | 0.00 | 0.04 | 0.00 | 80 | 1027.2 |
| 20260902063632 | 57 | 55 | 0.0 | 0.0 | 0.00 | 0.04 | 0.00 | 81 | 1027.3 |
| 20260902063101 | 58 | 55 | 0.0 | 0.0 | 0.00 | 0.05 | 0.04 | 80 | 1027.4 |
| 20260902062636 | 58 | 55 | 0.0 | 0.0 | 0.00 | 0.05 | 0.04 | 80 | 1027.4 |
| 20260902062109 | 58 | 55 | 0.0 | 0.0 | 0.00 | 0.05 | 0.04 | 79 | 1027.4 |
| 20260902061607 | 58 | 55 | 0.0 | 0.0 | 0.00 | 0.05 | 0.04 | 78 | 1027.4 |
| 20260902061121 | 59 | 55 | 0.0 | 0.0 | 0.00 | 0.05 | 0.04 | 79 | 1027.4 |
| 20260902060614 | 59 | 55 | 0.0 | 0.0 | 0.00 | 0.05 | 0.04 | 77 | 1027.5 |
| 20260902060107 | 59 | 55 | 0.0 | 0.0 | 0.00 | 0.05 | 0.04 | 78 | 1027.3 |
| 20260902055621 | 59 | 55 | 0.0 | 0.0 | 0.00 | 0.05 | 0.04 | 79 | 1027.3 |
| 20260902055115 | 59 | 55 | 0.0 | 0.0 | 0.00 | 0.05 | 0.04 | 79 | 1027.4 |
| 20260902054609 | 58 | 55 | 0.0 | 0.0 | 0.00 | 0.05 | 0.04 | 81 | 1027.4 |
| 20260902054106 | 58 | 55 | 0.0 | 0.0 | 0.00 | 0.05 | 0.04 | 81 | 1027.4 |
| 20260902053641 | 58 | 55 | 0.0 | 0.0 | 0.00 | 0.05 | 0.04 | 81 | 1027.5 |
| 20260902053114 | 58 | 55 | 0.0 | 0.0 | 0.00 | 0.05 | 0.04 | 81 | 1027.4 |
| 20260902052629 | 58 | 55 | 0.0 | 0.0 | 0.00 | 0.05 | 0.04 | 80 | 1027.4 |
| 20260902052101 | 58 | 55 | 0.0 | 0.0 | 0.00 | 0.05 | 0.04 | 82 | 1027.5 |
| 20260902051636 | 58 | 55 | 0.0 | 0.0 | 0.00 | 0.05 | 0.04 | 81 | 1027.5 |
| 20260902051131 | 58 | 55 | 0.0 | 0.0 | 0.00 | 0.05 | 0.04 | 81 | 1027.4 |
| 20260902050604 | 58 | 55 | 0.0 | 0.0 | 0.00 | 0.05 | 0.04 | 81 | 1027.4 |
| 20260902050117 | 58 | 55 | 0.0 | 0.0 | 0.00 | 0.05 | 0.04 | 80 | 1027.4 |
| 20260902045611 | 58 | 55 | 0.0 | 0.0 | 0.00 | 0.05 | 0.04 | 81 | 1027.4 |
| 20260902045109 | 58 | 55 | 0.0 | 0.0 | 0.00 | 0.05 | 0.04 | 81 | 1027.4 |
| 20260902044602 | 58 | 55 | 0.0 | 0.0 | 0.00 | 0.05 | 0.04 | 80 | 1027.5 |
| 20260902044116 | 59 | 55 | 0.0 | 0.0 | 0.00 | 0.05 | 0.04 | 80 | 1027.4 |
| 20260902043609 | 59 | 55 | 0.0 | 0.0 | 0.00 | 0.05 | 0.04 | 80 | 1027.4 |
| 20260902043104 | 59 | 55 | 0.0 | 0.0 | 0.00 | 0.05 | 0.04 | 78 | 1027.5 |
| 20260902042617 | 59 | 55 | 0.0 | 0.0 | 0.00 | 0.05 | 0.04 | 78 | 1027.6 |
| 20260902042110 | 59 | 55 | 0.0 | 0.0 | 0.00 | 0.05 | 0.04 | 79 | 1027.6 |
| 20260902041603 | 59 | 55 | 0.0 | 0.0 | 0.00 | 0.05 | 0.04 | 79 | 1027.6 |
| 20260902041118 | 59 | 55 | 0.0 | 0.0 | 0.00 | 0.05 | 0.04 | 78 | 1027.6 |
| 20260902040611 | 59 | 55 | 0.0 | 0.0 | 0.00 | 0.05 | 0.04 | 78 | 1027.6 |
| 20260902040109 | 59 | 55 | 0.0 | 0.0 | 0.00 | 0.05 | 0.04 | 78 | 1027.4 |
| 20260902035623 | 59 | 55 | 0.0 | 0.0 | 0.00 | 0.05 | 0.04 | 80 | 1027.4 |
| 20260902035115 | 59 | 55 | 0.0 | 0.0 | 0.00 | 0.05 | 0.04 | 79 | 1027.4 |
| 20260902034609 | 59 | 55 | 0.0 | 0.0 | 0.00 | 0.05 | 0.04 | 79 | 1027.4 |
| 20260902034102 | 59 | 55 | 0.0 | 0.0 | 0.00 | 0.05 | 0.04 | 80 | 1027.3 |
| 20260902033616 | 59 | 55 | 0.0 | 0.0 | 0.00 | 0.05 | 0.04 | 80 | 1027.2 |
| 20260902033131 | 59 | 55 | 0.0 | 0.0 | 0.00 | 0.05 | 0.04 | 79 | 1027.2 |
| 20260902032604 | 60 | 55 | 0.0 | 0.0 | 0.00 | 0.05 | 0.04 | 79 | 1027.1 |
| 20260902032138 | 60 | 55 | 0.0 | 0.0 | 0.00 | 0.05 | 0.04 | 79 | 1027.1 |
| 20260902031616 | 60 | 55 | 0.0 | 0.0 | 0.00 | 0.05 | 0.04 | 78 | 1026.9 |
| 20260902031110 | 60 | 55 | 0.0 | 0.0 | 0.00 | 0.05 | 0.04 | 77 | 1026.9 |
| 20260902030604 | 60 | 55 | 0.0 | 0.0 | 0.00 | 0.05 | 0.04 | 77 | 1026.9 |
| 20260902030117 | 61 | 55 | 0.0 | 0.0 | 0.00 | 0.05 | 0.04 | 76 | 1026.8 |
| 20260902025611 | 61 | 55 | 0.0 | 0.0 | 0.00 | 0.05 | 0.04 | 75 | 1026.8 |
| 20260902025106 | 61 | 55 | 0.0 | 0.0 | 0.00 | 0.05 | 0.04 | 74 | 1026.6 |
| 20260902024621 | 61 | 55 | 0.0 | 0.0 | 0.00 | 0.05 | 0.04 | 75 | 1026.6 |
| 20260902024115 | 62 | 55 | 0.0 | 0.0 | 0.00 | 0.05 | 0.04 | 74 | 1026.6 |
| 20260902023613 | 62 | 55 | 0.0 | 0.0 | 0.00 | 0.05 | 0.04 | 74 | 1026.5 |
| 20260902023128 | 62 | 55 | 0.0 | 0.0 | 0.00 | 0.05 | 0.04 | 74 | 1026.5 |
| 20260902022601 | 63 | 55 | 0.0 | 2.0 | 0.00 | 0.05 | 0.04 | 72 | 1026.4 |
| 20260902022115 | 63 | 55 | 1.0 | 2.0 | 0.00 | 0.05 | 0.04 | 71 | 1026.3 |
| 20260902021608 | 63 | 55 | 0.0 | 0.0 | 0.00 | 0.05 | 0.04 | 70 | 1026.2 |
| 20260902021102 | 64 | 55 | 0.0 | 0.0 | 0.00 | 0.05 | 0.04 | 71 | 1026.1 |
| 20260902020615 | 64 | 55 | 0.0 | 0.0 | 0.00 | 0.05 | 0.04 | 70 | 1026.1 |
| 20260902020108 | 65 | 55 | 0.0 | 0.0 | 0.00 | 0.05 | 0.04 | 70 | 1026.1 |
| 20260902015602 | 65 | 55 | 0.0 | 0.0 | 0.00 | 0.05 | 0.04 | 68 | 1026.0 |
| 20260902015120 | 65 | 55 | 0.0 | 0.0 | 0.00 | 0.05 | 0.04 | 68 | 1026.0 |
| 20260902014614 | 66 | 55 | 0.0 | 0.0 | 0.00 | 0.05 | 0.04 | 66 | 1025.9 |
| 20260902014108 | 66 | 55 | 0.0 | 0.0 | 0.00 | 0.05 | 0.04 | 65 | 1025.8 |
| 20260902013602 | 67 | 55 | 0.0 | 0.0 | 0.00 | 0.05 | 0.04 | 62 | 1025.8 |
| 20260902013116 | 68 | 55 | 0.0 | 0.0 | 0.00 | 0.06 | 0.04 | 62 | 1025.7 |
| 20260902012610 | 68 | 55 | 0.0 | 0.0 | 0.00 | 0.06 | 0.04 | 61 | 1025.7 |
| 20260902012104 | 68 | 55 | 0.0 | 0.0 | 0.00 | 0.06 | 0.04 | 59 | 1025.7 |
| 20260902011618 | 68 | 55 | 0.0 | 0.0 | 0.00 | 0.06 | 0.04 | 58 | 1025.7 |
| 20260902011116 | 69 | 55 | 0.0 | 0.0 | 0.00 | 0.06 | 0.04 | 57 | 1025.7 |
| 20260902010629 | 69 | 55 | 0.0 | 0.0 | 0.00 | 0.06 | 0.04 | 55 | 1025.7 |
| 20260902005616 | 70 | 55 | 0.0 | 0.0 | 0.00 | 0.06 | 0.04 | 57 | 1025.7 |
| 20260902005109 | 70 | 55 | 0.0 | 0.0 | 0.00 | 0.06 | 0.04 | 58 | 1025.7 |
| 20260902004603 | 70 | 55 | 0.0 | 0.0 | 0.00 | 0.06 | 0.04 | 58 | 1025.9 |
| 20260902004117 | 70 | 55 | 0.0 | 0.0 | 0.00 | 0.06 | 0.04 | 59 | 1025.9 |
| 20260902003610 | 70 | 55 | 0.0 | 0.0 | 0.00 | 0.06 | 0.04 | 58 | 1025.9 |
| 20260902003104 | 70 | 55 | 0.0 | 0.0 | 0.00 | 0.07 | 0.04 | 58 | 1026.0 |
| 20260902002601 | 70 | 55 | 0.0 | 2.0 | 0.00 | 0.07 | 0.04 | 57 | 1026.0 |
| 20260902002114 | 70 | 55 | 0.0 | 3.0 | 0.00 | 0.07 | 0.04 | 57 | 1026.0 |
| 20260902001608 | 70 | 55 | 1.0 | 3.0 | 0.00 | 0.07 | 0.04 | 56 | 1026.0 |
| 20260902001102 | 71 | 55 | 1.0 | 5.0 | 0.00 | 0.07 | 0.04 | 56 | 1026.1 |
| 20260902000616 | 71 | 55 | 2.0 | 5.0 | 0.00 | 0.07 | 0.04 | 55 | 1026.0 |
| 20260902000110 | 71 | 46 | 2.0 | 4.0 | 0.00 | 0.07 | 0.04 | 56 | 1025.9 |
| 20260901235602 | 72 | 142 | 0.0 | 1.0 | 0.00 | 0.07 | 0.04 | 56 | 1025.8 |
| 20260901235116 | 72 | 118 | 0.0 | 1.0 | 0.00 | 0.07 | 0.04 | 55 | 1025.8 |
| 20260901234614 | 72 | 133 | 0.0 | 3.0 | 0.00 | 0.07 | 0.04 | 56 | 1025.7 |
| 20260901234109 | 72 | 137 | 0.0 | 3.0 | 0.00 | 0.07 | 0.04 | 55 | 1025.7 |
| 20260901233602 | 73 | 142 | 2.0 | 3.0 | 0.00 | 0.07 | 0.04 | 53 | 1025.7 |
| 20260901233117 | 73 | 142 | 1.0 | 4.0 | 0.00 | 0.36 | 0.04 | 55 | 1025.7 |
| 20260901232611 | 74 | 142 | 1.0 | 4.0 | 0.00 | 0.36 | 0.04 | 55 | 1025.6 |
| 20260901232106 | 73 | 163 | 1.0 | 2.0 | 0.00 | 0.36 | 0.04 | 54 | 1025.7 |
| 20260901231620 | 73 | 137 | 0.0 | 3.0 | 0.00 | 0.36 | 0.04 | 56 | 1025.6 |
| 20260901231112 | 73 | 156 | 1.0 | 4.0 | 0.00 | 0.36 | 0.04 | 55 | 1025.7 |
| 20260901230610 | 73 | 144 | 1.0 | 4.0 | 0.00 | 0.36 | 0.04 | 56 | 1025.7 |
| 20260901230104 | 72 | 144 | 1.0 | 3.0 | 0.00 | 0.36 | 0.04 | 58 | 1025.7 |
| 20260901225619 | 72 | 30 | 0.0 | 3.0 | 0.00 | 0.36 | 0.04 | 59 | 1025.7 |
| 20260901225107 | 72 | 51 | 1.0 | 4.0 | 0.00 | 0.36 | 0.04 | 56 | 1025.8 |
| 20260901224620 | 72 | 38 | 2.0 | 4.0 | 0.00 | 0.36 | 0.04 | 56 | 1025.8 |
| 20260901224135 | 73 | 49 | 3.0 | 4.0 | 0.00 | 0.36 | 0.04 | 54 | 1025.9 |
| 20260901223609 | 73 | 190 | 0.0 | 4.0 | 0.00 | 0.36 | 0.04 | 55 | 1026.0 |
| 20260901223102 | 73 | 167 | 2.0 | 4.0 | 0.00 | 0.36 | 0.04 | 53 | 1025.9 |
| 20260901222617 | 74 | 89 | 0.0 | 2.0 | 0.00 | 0.36 | 0.04 | 52 | 1026.0 |
| 20260901222115 | 74 | 240 | 0.0 | 2.0 | 0.00 | 0.36 | 0.04 | 52 | 1026.0 |
| 20260901221629 | 74 | 240 | 1.0 | 2.0 | 0.00 | 0.36 | 0.04 | 48 | 1025.9 |
| 20260901221102 | 74 | 136 | 0.0 | 2.0 | 0.00 | 0.36 | 0.04 | 52 | 1026.0 |
| 20260901220616 | 74 | 136 | 1.0 | 3.0 | 0.00 | 0.36 | 0.04 | 47 | 1026.0 |
| 20260901220130 | 74 | 136 | 1.0 | 3.0 | 0.00 | 0.36 | 0.04 | 51 | 1026.1 |
| 20260901215603 | 74 | 154 | 1.0 | 2.0 | 0.00 | 0.36 | 0.04 | 52 | 1026.1 |
| 20260901215137 | 74 | 157 | 1.0 | 5.0 | 0.00 | 0.36 | 0.04 | 51 | 1026.2 |
| 20260901214610 | 75 | 157 | 1.0 | 6.0 | 0.00 | 0.36 | 0.04 | 48 | 1026.2 |
| 20260901214104 | 75 | 296 | 3.0 | 6.0 | 0.00 | 0.36 | 0.04 | 45 | 1026.2 |
| 20260901213602 | 75 | 49 | 2.0 | 5.0 | 0.01 | 0.36 | 0.04 | 48 | 1026.2 |
| 20260901213116 | 74 | 136 | 1.0 | 5.0 | 0.01 | 0.36 | 0.04 | 51 | 1026.3 |
| 20260901212630 | 72 | 154 | 1.0 | 6.0 | 0.01 | 0.36 | 0.04 | 56 | 1026.4 |
| 20260901212103 | 71 | 302 | 1.0 | 6.0 | 0.01 | 0.36 | 0.04 | 62 | 1026.5 |
| 20260901211617 | 69 | 295 | 0.0 | 2.0 | 0.01 | 0.36 | 0.04 | 65 | 1026.7 |
| 20260901211111 | 69 | 91 | 0.0 | 3.0 | 0.01 | 0.36 | 0.04 | 66 | 1026.7 |
| 20260901210604 | 68 | 91 | 1.0 | 4.0 | 0.02 | 0.36 | 0.04 | 70 | 1026.8 |
| 20260901210138 | 67 | 46 | 1.0 | 4.0 | 0.02 | 0.36 | 0.04 | 74 | 1026.9 |
| 20260901205611 | 66 | 208 | 1.0 | 3.0 | 0.02 | 0.36 | 0.04 | 74 | 1027.1 |
| 20260901205108 | 65 | 355 | 0.0 | 0.0 | 0.02 | 0.36 | 0.04 | 79 | 1027.2 |
| 20260901204603 | 65 | 355 | 0.0 | 0.0 | 0.02 | 0.36 | 0.04 | 77 | 1027.3 |
| 20260901204116 | 65 | 355 | 0.0 | 0.0 | 0.02 | 0.36 | 0.04 | 77 | 1027.4 |
| 20260901203609 | 66 | 355 | 0.0 | 0.0 | 0.01 | 0.35 | 0.03 | 75 | 1027.4 |
| 20260901203103 | 66 | 302 | 0.0 | 2.0 | 0.01 | 0.35 | 0.03 | 73 | 1027.7 |
| 20260901202618 | 67 | 336 | 0.0 | 7.0 | 0.01 | 0.35 | 0.03 | 68 | 1027.7 |
| 20260901202110 | 67 | 303 | 3.0 | 7.0 | 0.01 | 0.35 | 0.03 | 63 | 1027.6 |
| 20260901201608 | 69 | 29 | 0.0 | 5.0 | 0.01 | 0.35 | 0.03 | 63 | 1027.5 |
| 20260901201102 | 70 | 312 | 2.0 | 5.0 | 0.01 | 0.35 | 0.03 | 61 | 1027.5 |
| 20260901200615 | 72 | 344 | 2.0 | 5.0 | 0.00 | 0.34 | 0.02 | 60 | 1027.3 |
| 20260901200109 | 73 | 20 | 2.0 | 6.0 | 0.00 | 0.34 | 0.02 | 52 | 1027.2 |
| 20260901195603 | 73 | 302 | 2.0 | 6.0 | 0.00 | 0.34 | 0.02 | 52 | 1027.1 |
| 20260901195116 | 73 | 338 | 1.0 | 6.0 | 0.00 | 0.34 | 0.02 | 54 | 1027.2 |
| 20260901194610 | 73 | 153 | 1.0 | 8.0 | 0.00 | 0.34 | 0.02 | 56 | 1027.2 |
| 20260901194104 | 73 | 120 | 3.0 | 8.0 | 0.00 | 0.34 | 0.02 | 56 | 1027.3 |
| 20260901193603 | 72 | 154 | 3.0 | 7.0 | 0.00 | 0.34 | 0.02 | 57 | 1027.3 |
| 20260901193117 | 73 | 24 | 2.0 | 5.0 | 0.00 | 0.34 | 0.02 | 58 | 1027.4 |
| 20260901192610 | 73 | 192 | 0.0 | 8.0 | 0.00 | 0.34 | 0.02 | 56 | 1027.5 |
| 20260901192105 | 72 | 111 | 3.0 | 8.0 | 0.00 | 0.34 | 0.02 | 60 | 1027.6 |
| 20260901191639 | 72 | 54 | 2.0 | 4.0 | 0.00 | 0.34 | 0.02 | 61 | 1027.5 |
| 20260901191111 | 71 | 302 | 1.0 | 5.0 | 0.00 | 0.34 | 0.02 | 60 | 1027.7 |
| 20260901190606 | 71 | 153 | 2.0 | 7.0 | 0.00 | 0.34 | 0.02 | 63 | 1027.8 |
| 20260901190118 | 71 | 156 | 2.0 | 9.0 | 0.00 | 0.34 | 0.02 | 63 | 1027.9 |
| 20260901185614 | 70 | 132 | 4.0 | 9.0 | 0.00 | 0.34 | 0.02 | 67 | 1028.0 |
| 20260901185108 | 69 | 186 | 2.0 | 7.0 | 0.00 | 0.34 | 0.02 | 68 | 1028.0 |
| 20260901184605 | 69 | 175 | 1.0 | 8.0 | 0.00 | 0.34 | 0.02 | 69 | 1028.0 |
| 20260901184119 | 68 | 153 | 2.0 | 5.0 | 0.00 | 0.34 | 0.02 | 70 | 1028.1 |
| 20260901183633 | 68 | 160 | 0.0 | 6.0 | 0.00 | 0.34 | 0.02 | 71 | 1028.1 |
| 20260901183126 | 67 | 159 | 0.0 | 4.0 | 0.00 | 0.34 | 0.02 | 73 | 1028.3 |
| 20260901182619 | 67 | 160 | 1.0 | 4.0 | 0.00 | 0.34 | 0.02 | 74 | 1028.3 |
| 20260901182113 | 66 | 155 | 2.0 | 6.0 | 0.00 | 0.34 | 0.02 | 76 | 1028.3 |
| 20260901181607 | 66 | 144 | 2.0 | 6.0 | 0.00 | 0.34 | 0.02 | 77 | 1028.3 |
| 20260901181121 | 66 | 90 | 0.0 | 2.0 | 0.00 | 0.34 | 0.02 | 79 | 1028.3 |
| 20260901180615 | 65 | 90 | 0.0 | 1.0 | 0.00 | 0.34 | 0.02 | 78 | 1028.4 |
| 20260901180133 | 65 | 90 | 0.0 | 2.0 | 0.00 | 0.34 | 0.02 | 79 | 1028.4 |
| 20260901175607 | 65 | 90 | 1.0 | 2.0 | 0.00 | 0.34 | 0.02 | 77 | 1028.5 |
| 20260901175102 | 65 | 16 | 0.0 | 4.0 | 0.00 | 0.34 | 0.02 | 76 | 1028.7 |
| 20260901174615 | 65 | 142 | 1.0 | 4.0 | 0.00 | 0.34 | 0.02 | 77 | 1028.8 |
| 20260901174109 | 65 | 144 | 1.0 | 4.0 | 0.00 | 0.34 | 0.02 | 76 | 1028.9 |
| 20260901173603 | 65 | 144 | 1.0 | 4.0 | 0.00 | 0.34 | 0.02 | 75 | 1028.9 |
| 20260901173138 | 65 | 147 | 1.0 | 3.0 | 0.00 | 0.34 | 0.02 | 75 | 1028.8 |
| 20260901172610 | 65 | 193 | 0.0 | 3.0 | 0.00 | 0.34 | 0.02 | 74 | 1028.8 |
| 20260901172105 | 65 | 142 | 0.0 | 2.0 | 0.00 | 0.34 | 0.02 | 76 | 1028.7 |
| 20260901171601 | 65 | 142 | 0.0 | 3.0 | 0.00 | 0.34 | 0.02 | 76 | 1028.8 |
| 20260901171116 | 65 | 142 | 0.0 | 3.0 | 0.00 | 0.34 | 0.02 | 75 | 1028.7 |
| 20260901170629 | 65 | 130 | 1.0 | 3.0 | 0.00 | 0.34 | 0.02 | 76 | 1028.8 |
| 20260901165616 | 65 | 146 | 0.0 | 6.0 | 0.00 | 0.34 | 0.02 | 77 | 1028.8 |
| 20260901165110 | 65 | 149 | 1.0 | 6.0 | 0.00 | 0.34 | 0.02 | 80 | 1028.8 |
| 20260901164603 | 64 | 46 | 0.0 | 5.0 | 0.00 | 0.34 | 0.02 | 82 | 1028.7 |
| 20260901164137 | 64 | 157 | 1.0 | 5.0 | 0.00 | 0.34 | 0.02 | 84 | 1028.7 |
| 20260901163610 | 64 | 58 | 1.0 | 3.0 | 0.00 | 0.34 | 0.02 | 84 | 1028.7 |
| 20260901163108 | 63 | 198 | 0.0 | 2.0 | 0.00 | 0.34 | 0.02 | 86 | 1028.6 |
| 20260901162602 | 63 | 61 | 1.0 | 3.0 | 0.00 | 0.34 | 0.02 | 86 | 1028.6 |
| 20260901162115 | 63 | 34 | 1.0 | 5.0 | 0.00 | 0.34 | 0.02 | 85 | 1028.4 |
| 20260901161609 | 63 | 171 | 2.0 | 5.0 | 0.00 | 0.34 | 0.02 | 87 | 1028.5 |
| 20260901161103 | 62 | 112 | 0.0 | 2.0 | 0.00 | 0.34 | 0.02 | 88 | 1028.4 |
| 20260901160617 | 62 | 143 | 0.0 | 2.0 | 0.00 | 0.34 | 0.02 | 90 | 1028.3 |
| 20260901160131 | 61 | 138 | 0.0 | 2.0 | 0.00 | 0.34 | 0.02 | 88 | 1028.2 |
| 20260901155604 | 61 | 173 | 0.0 | 1.0 | 0.00 | 0.34 | 0.02 | 91 | 1028.2 |
| 20260901155140 | 61 | 173 | 0.0 | 0.0 | 0.00 | 0.34 | 0.02 | 92 | 1028.2 |
| 20260901154617 | 61 | 173 | 0.0 | 1.0 | 0.00 | 0.34 | 0.02 | 93 | 1028.2 |
| 20260901154112 | 60 | 173 | 0.0 | 2.0 | 0.00 | 0.34 | 0.02 | 93 | 1028.2 |
| 20260901153626 | 60 | 328 | 0.0 | 1.0 | 0.00 | 0.34 | 0.02 | 94 | 1028.3 |
| 20260901153119 | 60 | 328 | 0.0 | 0.0 | 0.00 | 0.34 | 0.02 | 94 | 1028.3 |